TimeCDT,TemperatureF,Dew PointF,Humidity,Sea Level PressureIn,VisibilityMPH,Wind Direction,Wind SpeedMPH,Gust SpeedMPH,PrecipitationIn,Events,Conditions,WindDirDegrees,DateUTC
12:15 AM,69.8,60.8,73,29.94,10.0,South,19.6,23.0,N/A,Thunderstorm,Thunderstorm,170,2013-06-15 05:15:00
12:35 AM,71.6,60.8,69,29.97,10.0,South,16.1,27.6,N/A,,Overcast,180,2013-06-15 05:35:00
12:55 AM,73.4,57.2,57,29.86,10.0,North,11.5,-,N/A,,Mostly Cloudy,350,2013-06-15 05:55:00
1:15 AM,75.2,57.2,53,29.86,10.0,ESE,13.8,17.3,N/A,,Scattered Clouds,120,2013-06-15 06:15:00
1:35 AM,75.2,55.4,50,29.84,10.0,East,5.8,-,N/A,,Clear,90,2013-06-15 06:35:00
1:55 AM,73.4,55.4,53,29.84,10.0,East,4.6,-,N/A,,Clear,100,2013-06-15 06:55:00
2:15 AM,71.6,57.2,60,29.84,10.0,South,3.5,-,N/A,,Clear,190,2013-06-15 07:15:00
2:35 AM,71.6,57.2,60,29.84,10.0,WNW,3.5,-,N/A,,Clear,300,2013-06-15 07:35:00
2:55 AM,64.4,57.2,77,29.85,10.0,South,4.6,-,N/A,,Clear,190,2013-06-15 07:55:00
3:15 AM,64.4,57.2,77,29.86,10.0,SSW,4.6,-,N/A,,Clear,210,2013-06-15 08:15:00
3:35 AM,66.2,57.2,73,29.87,10.0,SSW,9.2,-,N/A,,Clear,200,2013-06-15 08:35:00
3:55 AM,64.4,57.2,77,29.90,10.0,SSW,12.7,-,N/A,,Clear,210,2013-06-15 08:55:00
4:15 AM,69.8,55.4,60,29.92,10.0,SW,10.4,-,N/A,,Clear,230,2013-06-15 09:15:00
4:35 AM,69.8,55.4,60,29.91,10.0,SSW,8.1,-,N/A,,Clear,200,2013-06-15 09:35:00
4:55 AM,66.2,57.2,73,29.90,10.0,South,3.5,-,N/A,,Clear,190,2013-06-15 09:55:00
5:15 AM,62.6,57.2,82,29.89,10.0,East,8.1,-,N/A,,Clear,80,2013-06-15 10:15:00
5:35 AM,62.6,57.2,82,29.89,10.0,East,6.9,-,N/A,,Clear,90,2013-06-15 10:35:00
5:55 AM,62.6,57.2,82,29.89,10.0,SE,4.6,-,N/A,,Clear,140,2013-06-15 10:55:00
6:15 AM,64.4,57.2,77,29.89,10.0,Calm,Calm,-,N/A,,Clear,0,2013-06-15 11:15:00
6:35 AM,62.6,57.2,82,29.90,10.0,ESE,4.6,-,N/A,,Clear,120,2013-06-15 11:35:00
6:55 AM,62.6,57.2,82,29.92,10.0,South,11.5,-,N/A,,Clear,170,2013-06-15 11:55:00
7:15 AM,64.4,57.2,77,29.94,10.0,NW,9.2,-,N/A,,Clear,310,2013-06-15 12:15:00
7:35 AM,64.4,59.0,83,29.95,10.0,NNW,6.9,-,N/A,,Clear,330,2013-06-15 12:35:00
7:55 AM,64.4,59.0,83,29.96,10.0,North,6.9,-,N/A,,Clear,350,2013-06-15 12:55:00
8:15 AM,68.0,60.8,78,29.95,10.0,North,12.7,-,N/A,,Clear,10,2013-06-15 13:15:00
8:35 AM,71.6,62.6,73,29.95,10.0,NNE,16.1,-,N/A,,Clear,20,2013-06-15 13:35:00
8:55 AM,71.6,64.4,78,29.96,10.0,NNE,17.3,21.9,N/A,,Clear,30,2013-06-15 13:55:00
9:15 AM,71.6,64.4,78,29.96,10.0,NE,12.7,-,N/A,,Clear,40,2013-06-15 14:15:00
9:35 AM,71.6,64.4,78,29.97,10.0,ENE,13.8,19.6,N/A,,Clear,70,2013-06-15 14:35:00
9:55 AM,71.6,64.4,78,29.98,10.0,ENE,13.8,-,N/A,,Clear,60,2013-06-15 14:55:00
10:15 AM,73.4,66.2,78,29.97,10.0,East,15.0,-,N/A,,Scattered Clouds,90,2013-06-15 15:15:00
10:35 AM,75.2,64.4,69,29.96,10.0,ENE,13.8,-,N/A,,Partly Cloudy,70,2013-06-15 15:35:00
10:55 AM,75.2,66.2,73,29.97,10.0,ESE,16.1,-,N/A,,Clear,110,2013-06-15 15:55:00
11:15 AM,77.0,66.2,69,29.97,10.0,East,15.0,20.7,N/A,,Partly Cloudy,100,2013-06-15 16:15:00
11:35 AM,77.0,66.2,69,29.96,10.0,ESE,11.5,18.4,N/A,,Scattered Clouds,110,2013-06-15 16:35:00
11:55 AM,78.8,66.2,65,29.96,10.0,East,11.5,18.4,N/A,,Clear,100,2013-06-15 16:55:00
12:15 PM,78.8,64.4,61,29.96,10.0,East,13.8,17.3,N/A,,Clear,90,2013-06-15 17:15:00
12:35 PM,80.6,64.4,58,29.95,10.0,ESE,13.8,-,N/A,,Clear,120,2013-06-15 17:35:00
12:55 PM,80.6,64.4,58,29.94,10.0,ESE,13.8,-,N/A,,Clear,120,2013-06-15 17:55:00
1:15 PM,80.6,62.6,54,29.94,10.0,East,10.4,-,N/A,,Clear,90,2013-06-15 18:15:00
1:35 PM,80.6,62.6,54,29.94,10.0,East,10.4,17.3,N/A,,Clear,90,2013-06-15 18:35:00
1:55 PM,80.6,62.6,54,29.93,10.0,East,6.9,-,N/A,,Partly Cloudy,90,2013-06-15 18:55:00
2:15 PM,82.4,62.6,51,29.92,10.0,ENE,5.8,-,N/A,,Clear,60,2013-06-15 19:15:00
2:35 PM,82.4,62.6,51,29.92,10.0,NNE,6.9,-,N/A,,Clear,30,2013-06-15 19:35:00
2:55 PM,82.4,62.6,51,29.91,10.0,NNW,4.6,-,N/A,,Clear,330,2013-06-15 19:55:00
3:15 PM,82.4,62.6,51,29.91,10.0,NNW,3.5,-,N/A,,Clear,330,2013-06-15 20:15:00
3:35 PM,82.4,62.6,51,29.90,10.0,NE,6.9,-,N/A,,Clear,40,2013-06-15 20:35:00
3:55 PM,84.2,62.6,48,29.90,10.0,NNW,12.7,-,N/A,,Clear,330,2013-06-15 20:55:00
4:15 PM,82.4,62.6,51,29.90,10.0,North,13.8,-,N/A,,Clear,360,2013-06-15 21:15:00
4:35 PM,84.2,62.6,48,29.90,10.0,North,13.8,17.3,N/A,,Clear,360,2013-06-15 21:35:00
4:55 PM,84.2,62.6,48,29.90,10.0,NE,13.8,-,N/A,,Clear,40,2013-06-15 21:55:00
5:15 PM,82.4,62.6,51,29.90,10.0,NE,15.0,-,N/A,,Clear,50,2013-06-15 22:15:00
5:35 PM,84.2,62.6,48,29.90,10.0,NNE,12.7,-,N/A,,Clear,30,2013-06-15 22:35:00
5:55 PM,82.4,62.6,51,29.90,10.0,ENE,13.8,-,N/A,,Clear,60,2013-06-15 22:55:00
6:15 PM,82.4,62.6,51,29.90,10.0,NE,16.1,20.7,N/A,,Clear,40,2013-06-15 23:15:00
6:35 PM,82.4,62.6,51,29.91,10.0,NE,15.0,18.4,N/A,,Clear,40,2013-06-15 23:35:00
6:55 PM,82.4,60.8,48,29.90,10.0,NE,15.0,-,N/A,,Clear,40,2013-06-15 23:55:00
7:15 PM,80.6,60.8,51,29.90,10.0,ENE,15.0,-,N/A,,Clear,60,2013-06-16 00:15:00
7:35 PM,80.6,60.8,51,29.91,10.0,NE,13.8,-,N/A,,Clear,50,2013-06-16 00:35:00
7:55 PM,78.8,60.8,54,29.92,10.0,ENE,10.4,-,N/A,,Clear,60,2013-06-16 00:55:00
8:15 PM,77.0,60.8,57,29.92,10.0,NE,11.5,-,N/A,,Clear,50,2013-06-16 01:15:00
8:35 PM,75.2,60.8,61,29.93,10.0,NE,8.1,-,N/A,,Clear,40,2013-06-16 01:35:00
8:55 PM,73.4,60.8,65,29.94,10.0,NE,8.1,-,N/A,,Clear,40,2013-06-16 01:55:00
9:15 PM,73.4,60.8,65,29.94,10.0,ENE,6.9,-,N/A,,Clear,70,2013-06-16 02:15:00
9:35 PM,71.6,60.8,69,29.95,10.0,NE,5.8,-,N/A,,Clear,40,2013-06-16 02:35:00
9:55 PM,71.6,60.8,69,29.96,10.0,NE,4.6,-,N/A,,Clear,40,2013-06-16 02:55:00
10:15 PM,71.6,62.6,73,29.97,10.0,NNE,6.9,-,N/A,,Clear,20,2013-06-16 03:15:00
10:35 PM,69.8,62.6,78,29.98,10.0,NNE,6.9,-,N/A,,Clear,20,2013-06-16 03:35:00
10:55 PM,69.8,62.6,78,29.99,10.0,North,9.2,-,N/A,,Clear,10,2013-06-16 03:55:00
11:15 PM,69.8,62.6,78,29.99,10.0,North,10.4,-,N/A,,Clear,10,2013-06-16 04:15:00
11:35 PM,69.8,64.4,83,29.99,10.0,North,9.2,-,N/A,,Clear,10,2013-06-16 04:35:00
11:55 PM,69.8,64.4,83,29.98,10.0,NNE,10.4,-,N/A,,Clear,20,2013-06-16 04:55:00